ATLAS 5 CENTAUR R/B, 40731

Orbit data source: Space-Track

ATLAS 5 CENTAUR R/B, 40731 is space debris in MEO originally from a launch on Wed, 15 Jul 2015 UTC launched from the Air Force Eastern Test Range (AFETR). Debris objects in space refer to the collection of defunct objects orbiting the Earth. Examples of debris include non-operational satellites, rocket bodies, and fragments generated from explosions, collisions, or faulty payload assembly.

Loading next visibility...
ATLAS 5 CENTAUR R/B details
Identifier
40731, 2015-033B
Orbit
MEO
Last TLE update1 day ago
Origin
Flag of USULA (US)
ManufacturerLMSS Denver
MissionSpacecraft
Bus & MotorCENTAUR SEC, RL10C-1
Mass~2,020 kg wet, 2,020 kg dry
Launch date (UTC)
2015-07-15 (9 years ago)
Launch vehicleUnknown
Launch site
Air Force Eastern Test Range (AFETR)
Object type
Payload
Rocket body
Debris
Shape & HBRCyl + 1 Nozzle, 11.7 m
Radar Cross Section32.260 m², Large (>1 m²)

Expand to show TLE details & history

TLE from 1 day ago
0 ATLAS 5 CENTAUR R/B
1 40731U 15033B   24360.40700896 -.00000082  00000-0  00000-0 0  9997
2 40731  55.0535 303.7491 0229262 359.3107   0.6526  1.90867033 65869
Epoch: 2024-12-25T09:46Z
Definitive object data (Epoch: 2024-12-25T09:46:05.574Z)
Latitude
Longitude62.80629°
Altitude20,445.313 km
Speed3.899 km/s
True Right ascension20h 14m 55s
True Declination0° 00' 00"
Sunlit
Object was in daylight at TLE epoch
Visualization TLE readout
Latitude1.32006°
Longitude-118.16338°
Altitude21,703.802 km
Speed3.724 km/s
Apparent Right ascension07h 41m 25s
Apparent Declination-6° 16' 33"
Sunlit
Object is in daylight
Visualization observer readout
Local Sidereal Time16:30:58
Azimuth295.242° NW
Elevation-35.739°
Doppler factor1
Orbital elements
Apogee altitude21,703.705 km
Perigee altitude20,444.944 km
Semi-major axis27,452.462 km
Eccentricity0.0229262
Inclination55.0535°
RAAN303.7491°
Arg. of periapsis359.3107°
True anomaly0.6834°
Mean anomaly0.6526°
Eccentric anomaly0.66791°
Mean motion0.47717 °/min
BSTARUnknown
Orbital period754.45 mins
Loading maneuver chart data...
Loading historical data...
Loading historical data...
Loading historical data...
Loading historical data...
Loading historical data...
Loading historical data...
Loading historical data...
Other satellites on launch #33 in the year 2015 (2015-07-15 UTC)

ATLAS 5 CENTAUR R/B Visibility forecast

Observer location: undefined°, undefined

Span
Click to sort rows by Start time (UTC) header in descending order
Start Az.
Max El. time (UTC)
Max El. Az.
Max El.
End time (UTC)
End Az.
442 mins2024-12-26 22:54:41.164Z224.045° SW2024-12-27 02:14:41.164Z346.951° N43.37°2024-12-27 06:16:41.164Z129.42° SE
|